Location: Kawakawa
(35.3830°S, 174.0670°E)
Time: 07:07:31
(UTC+13:00)

Vanguard 2 Rocket - Visible Passes

Search period start: 15 December 2019 00:00
Search period end: 25 December 2019 00:00
Orbit: 554 x 3326 km, 32.9° (Epoch: 14 December)

Date Brightness Start Highest point End Pass type
(mag) Time Alt. Az. Time Alt. Az. Time Alt. Az.
15 Dec 8.7 04:07:16 10° NNE 04:08:59 11° NE 04:10:54 10° ENE visible
16 Dec 8.0 05:16:48 10° NW 05:21:27 35° NNE 05:28:42 10° E visible
17 Dec 8.0 04:20:31 16° N 04:22:27 20° NE 04:27:00 10° E visible
18 Dec 7.4 05:30:30 10° NW 05:35:17 49° NNE 05:43:04 10° E visible
19 Dec 7.5 04:33:57 21° NNW 04:36:08 32° NNE 04:41:47 10° E visible
20 Dec 8.1 03:37:44 18° NE 03:37:44 18° NE 03:40:36 10° ENE visible
21 Dec 6.9 04:47:20 21° NW 04:50:03 46° NNE 04:56:12 10° E visible
22 Dec 7.2 03:51:07 29° NNE 03:51:07 29° NNE 03:55:28 10° E visible
23 Dec 6.6 05:00:42 16° WNW 05:04:08 60° NNE 05:10:28 10° E visible
24 Dec 6.4 04:04:29 42° N 04:04:58 44° NNE 04:09:55 10° E visible
